Weather History for West Palm Beach, FL

Change the Weather History Date:

Wednesday, August 20, 2014

  Actual Average Record
Temperature  
Mean Temperature 86 °F 83 °F  
Max Temperature 93 °F 90 °F 95 °F (1951)
Min Temperature 79 °F 76 °F 69 °F (1956)
Degree Days  
Heating Degree Days 0 0  
Month to date heating degree days 0 0  
Since 1 June heating degree days 0 0  
Since 1 July heating degree days 0 0  
Cooling Degree Days 21 18  
Month to date cooling degree days 381 360  
Year to date cooling degree days 2785 2508  
Since 1 June cooling degree days 1433 1399  
Growing Degree Days 36 (Base 50)    
Moisture  
Dew Point 75 °F    
Average Humidity 74    
Maximum Humidity 91    
Minimum Humidity 56    
Precipitation  
Precipitation 0.00 in 0.25 in 6.70 in (1988)
Month to date precipitation 9.37 4.93  
Year to date precipitation 42.80 37.70  
Snow  
Snow 0.00 in - - ()
Month to date snowfall 0.0  
Since 1 June snowfall 0.0  
Since 1 July snowfall 0.0  
Snow Depth 0.00 in    
Sea Level Pressure  
Sea Level Pressure 30.05 in    
Wind  
Wind Speed 4 mph (SE)    
Max Wind Speed 15 mph    
Max Gust Speed 20 mph    
Visibility 10 miles    
Events Thunderstorm    
T = Trace of Precipitation, MM = Missing Value Source: NWS Daily Summary

Daily Weather History Graph

Daily Weather History Graph

Search for Another Location

Airport:

Trip Planner

Search our weather history database for the weather conditions in past years. The results will help you decide how hot, cold, wet, or windy it might be!

Date:

Astronomy

Aug. 20, 2014 Rise Set
Actual Time 6:54 AM EDT 7:52 PM EDT
Civil Twilight 6:30 AM EDT 8:16 PM EDT
Nautical Twilight 6:02 AM EDT 8:44 PM EDT
Astronomical Twilight 5:33 AM EDT 9:13 PM EDT
Moon 2:43 AM EDT (8/20) 4:26 PM EDT (8/20)
Length of Visible Light 13h 45m
Length of Day
12h 57m
Waning Crescent, 21% of the Moon is Illuminated
Aug 20
Waning Crescent
Aug 25
New
Sep 2
First Quarter
Sep 8
Full
Sep 15
Last Quarter

Hourly Weather History & Observations

Time (EDT) Temp. Heat Index Dew Point Humidity Pressure Visibility Wind Dir Wind Speed Gust Speed Precip Events Conditions
12:53 AM 82.9 °F 90.8 °F 75.9 °F 79% 30.01 in 10.0 mi South 5.8 mph - N/A   Scattered Clouds
1:53 AM 82.9 °F 90.8 °F 75.9 °F 79% 30.00 in 10.0 mi South 4.6 mph - N/A   Scattered Clouds
2:53 AM 82.0 °F 89.4 °F 75.9 °F 82% 30.01 in 10.0 mi Calm Calm - N/A   Scattered Clouds
3:53 AM 81.0 °F 87.3 °F 75.9 °F 85% 29.99 in 10.0 mi WSW 3.5 mph - N/A   Partly Cloudy
4:53 AM 81.0 °F 87.3 °F 75.9 °F 85% 29.99 in 10.0 mi Calm Calm - N/A   Scattered Clouds
5:53 AM 80.1 °F 85.4 °F 75.9 °F 87% 30.00 in 10.0 mi Calm Calm - N/A   Partly Cloudy
6:53 AM 80.1 °F 85.1 °F 75.0 °F 85% 30.03 in 10.0 mi Calm Calm - N/A   Scattered Clouds
7:53 AM 81.0 °F 87.9 °F 77.0 °F 88% 30.05 in 10.0 mi Calm Calm - N/A   Scattered Clouds
8:53 AM 84.0 °F 93.7 °F 77.0 °F 79% 30.06 in 10.0 mi WNW 3.5 mph - N/A   Partly Cloudy
9:53 AM 87.1 °F 98.8 °F 77.0 °F 72% 30.07 in 10.0 mi Calm Calm - N/A   Partly Cloudy
10:53 AM 89.1 °F 99.1 °F 75.0 °F 63% 30.09 in 10.0 mi WNW 5.8 mph - N/A   Scattered Clouds
11:53 AM 91.0 °F 101.6 °F 75.0 °F 59% 30.08 in 10.0 mi ESE 5.8 mph - N/A   Scattered Clouds
12:53 PM 91.0 °F 102.9 °F 75.9 °F 61% 30.07 in 10.0 mi Calm Calm - N/A   Mostly Cloudy
1:53 PM 93.0 °F 105.3 °F 75.9 °F 57% 30.06 in 10.0 mi ESE 10.4 mph - N/A   Mostly Cloudy
2:40 PM 91.0 °F 101.6 °F 75.0 °F 59% 30.04 in 10.0 mi ESE 13.8 mph - N/A Thunderstorm Thunderstorm
2:53 PM 91.0 °F 101.6 °F 75.0 °F 59% 30.05 in 10.0 mi East 11.5 mph - N/A Thunderstorm Thunderstorm
3:53 PM 89.1 °F 97.0 °F 73.0 °F 59% 30.06 in 10.0 mi East 11.5 mph - N/A Thunderstorm Thunderstorm
4:53 PM 86.0 °F 92.2 °F 72.0 °F 63% 30.05 in 10.0 mi NW 3.5 mph - N/A Thunderstorm Thunderstorm
5:04 PM 87.1 °F 93.6 °F 72.0 °F 61% 30.05 in 10.0 mi North 3.5 mph - N/A   Mostly Cloudy
5:53 PM 84.9 °F 91.4 °F 73.0 °F 67% 30.05 in 10.0 mi Calm Calm - N/A   Scattered Clouds
6:53 PM 87.1 °F 95.4 °F 73.9 °F 65% 30.05 in 10.0 mi East 8.1 mph - N/A   Mostly Cloudy
7:53 PM 84.9 °F 92.1 °F 73.9 °F 69% 30.06 in 10.0 mi SE 4.6 mph - N/A   Scattered Clouds
8:53 PM 84.0 °F 91.9 °F 75.0 °F 74% 30.06 in 10.0 mi SE 5.8 mph - N/A   Scattered Clouds
9:53 PM 84.9 °F 92.1 °F 73.9 °F 69% 30.08 in 10.0 mi SE 6.9 mph - N/A   Scattered Clouds
10:53 PM 84.0 °F 91.9 °F 75.0 °F 74% 30.09 in 10.0 mi SSE 4.6 mph - N/A   Partly Cloudy
11:53 PM 84.0 °F 91.9 °F 75.0 °F 74% 30.10 in 10.0 mi SE 4.6 mph - N/A   Partly Cloudy